Tracking 28790 objects as of 19-Apr-2024
HD Live streaming from Space Station
objects crossing your sky now

SL-3 DEB

Track SL-3 DEB now!
10-day predictions


NORAD ID: 25655
Int'l Code: 1988-032D
Perigee: 514.2 km
Apogee: 572.0 km
Inclination: 97.4 °
Period: 95.4 minutes
Semi major axis: 6914 km
RCS: 0.0386 m2 (small)
Launch date: April 20, 1988
Source: Commonwealth of Independent States (former USSR) (CIS)
Launch site: TYURATAM MISSILE AND SPACE COMPLEX (TTMTR)

Note: This is SATELLITE DEBRIS
Your satellite tracking list
Your tracking list is empty




NASA's NSSDC Master Catalog

Two Line Element Set (TLE):
1 25655U 88032D   24109.45758619  .00010152  00000-0  61427-3 0  9997
2 25655  97.4362  92.7604 0041805  99.3056  23.2751 15.10073804946620
Source of the keplerian elements: AFSPC